Temp
-1 -1 -2 -2 -2 -2 -2 -3 -3 -3 -3 -3 -3 -3 -3 -4 -5 -5 -5 -5 -5 -5 -6 -6 -7 -7 -7 -7 -6 -6 -7 -7 -7 -7 -6 -6 -6 -6 -6 -6 -6 -6 -6 -6 -6 -6 -6 -6 -7 -7 -7 -7 -7 -8 -8 -8 -8 -8 -8 -8 -8 -9 -9
-2 -2 -2 -2 -2 -3 -3 -3 -3 -3 -3 -3 -3 -3 -4 -4 -5 -6 -6 -6 -6 -6 -6 -7 -7 -7 -7 -7 -7 -7 -7 -7 -7 -7 -7 -7 -7 -7 -7 -7 -7 -7 -7 -7 -7 -6 -6 -7 -7 -7 -7 -7 -8 -8 -8 -8 -8 -8 -8 -9 -9 -9 -9
-2 -2 -2 -2 -3 -3 -3 -3 -3 -4 -4 -4 -4 -4 -5 -5 -6 -6 -6 -6 -6 -6 -7 -7 -8 -8 -8 -8 -8 -8 -7 -7 -8 -8 -8 -7 -7 -7 -7 -7 -7 -7 -7 -7 -7 -7 -7 -7 -7 -8 -8 -8 -8 -8 -9 -8 -8 -9 -9 -9 -9 -9 -9
-2 -2 -2 -3 -3 -3 -3 -3 -4 -4 -4 -4 -4 -5 -6 -6 -7 -7 -7 -6 -6 -7 -7 -8 -8 -8 -8 -8 -8 -8 -8 -8 -8 -8 -8 -8 -8 -7 -7 -7 -7 -7 -7 -7 -7 -7 -7 -8 -8 -8 -8 -8 -9 -9 -9 -9 -9 -9 -9 -9 -9 -10 -10
-2 -2 -3 -3 -3 -3 -3 -4 -4 -4 -4 -5 -5 -6 -6 -7 -7 -7 -7 -7 -7 -7 -7 -8 -9 -9 -9 -9 -9 -9 -9 -9 -9 -9 -9 -9 -8 -8 -8 -8 -8 -8 -8 -8 -8 -8 -8 -8 -8 -8 -9 -9 -9 -9 -9 -9 -10 -10 -10 -10 -10 -10 -10
-3 -3 -3 -3 -3 -4 -4 -4 -4 -5 -5 -6 -6 -7 -7 -7 -7 -7 -7 -7 -7 -7 -7 -8 -9 -9 -10 -10 -9 -9 -9 -9 -9 -9 -9 -9 -9 -8 -8 -9 -9 -9 -8 -8 -8 -8 -8 -8 -8 -9 -9 -10 -10 -10 -10 -10 -10 -10 -10 -10 -10 -10 -10
-3 -3 -3 -4 -4 -4 -4 -4 -5 -5 -5 -6 -7 -7 -7 -7 -7 -7 -7 -7 -7 -7 -7 -8 -9 -10 -10 -10 -10 -10 -10 -10 -10 -10 -10 -10 -9 -9 -9 -9 -9 -9 -9 -9 -9 -9 -9 -9 -9 -9 -10 -10 -10 -11 -11 -11 -11 -11 -11 -11 -10 -10 -10
-3 -3 -4 -4 -4 -4 -4 -5 -5 -5 -6 -6 -7 -7 -7 -7 -7 -7 -7 -7 -7 -7 -8 -9 -9 -10 -11 -11 -11 -11 -11 -11 -11 -10 -10 -10 -10 -10 -9 -9 -9 -9 -9 -9 -9 -9 -9 -9 -9 -9 -10 -11 -11 -11 -11 -11 -11 -11 -11 -11 -11 -11 -11
-4 -4 -4 -4 -4 -4 -5 -5 -5 -6 -6 -6 -7 -8 -8 -7 -7 -7 -7 -7 -8 -8 -9 -9 -10 -10 -11 -11 -11 -11 -11 -11 -11 -11 -11 -10 -10 -10 -10 -10 -9 -9 -9 -9 -9 -9 -9 -9 -9 -10 -10 -11 -11 -11 -11 -11 -11 -11 -11 -11 -11 -11 -11
-4 -4 -4 -4 -4 -5 -5 -5 -6 -6 -6 -7 -8 -8 -8 -8 -8 -8 -8 -8 -8 -9 -9 -10 -10 -10 -11 -11 -11 -12 -12 -11 -11 -11 -11 -11 -10 -10 -10 -10 -10 -10 -10 -9 -10 -10 -10 -10 -10 -11 -11 -11 -12 -12 -12 -12 -11 -11 -11 -12 -12 -11 -11
-4 -4 -5 -5 -5 -5 -5 -6 -6 -6 -7 -7 -8 -8 -8 -8 -8 -8 -8 -8 -9 -9 -10 -10 -10 -11 -11 -11 -12 -12 -12 -12 -12 -11 -11 -11 -11 -11 -11 -10 -10 -10 -10 -10 -10 -10 -10 -11 -11 -12 -12 -12 -12 -12 -12 -12 -12 -12 -12 -12 -12 -12 -11
-5 -5 -5 -5 -5 -5 -6 -6 -6 -7 -7 -7 -8 -8 -8 -8 -8 -8 -8 -9 -9 -10 -10 -10 -11 -11 -11 -12 -12 -12 -12 -12 -12 -12 -11 -11 -11 -11 -11 -11 -11 -10 -10 -11 -11 -11 -11 -12 -12 -12 -12 -12 -12 -12 -12 -12 -12 -12 -12 -12 -12 -12 -12
-5 -5 -5 -5 -5 -6 -6 -6 -7 -7 -7 -8 -8 -9 -8 -8 -8 -9 -9 -10 -10 -11 -11 -11 -11 -11 -12 -12 -12 -12 -12 -12 -12 -12 -12 -12 -12 -11 -11 -11 -11 -11 -11 -12 -12 -12 -12 -12 -12 -12 -12 -12 -12 -12 -12 -12 -12 -12 -12 -12 -12 -12 -12
-5 -5 -6 -6 -6 -6 -6 -6 -7 -8 -8 -8 -9 -9 -9 -9 -9 -9 -10 -10 -11 -11 -11 -11 -11 -12 -12 -12 -13 -13 -13 -12 -12 -12 -12 -12 -11 -11 -11 -11 -11 -12 -12 -12 -13 -13 -13 -13 -13 -12 -12 -12 -12 -12 -12 -12 -12 -12 -12 -12 -12 -12 -12
-6 -6 -6 -6 -6 -6 -6 -6 -7 -8 -9 -9 -9 -9 -9 -9 -9 -10 -10 -11 -11 -11 -12 -12 -12 -12 -12 -13 -13 -13 -13 -12 -12 -12 -12 -12 -12 -12 -12 -12 -12 -12 -12 -13 -13 -13 -13 -13 -13 -13 -12 -12 -12 -12 -12 -12 -12 -12 -12 -11 -12 -12 -12
-6 -6 -6 -6 -6 -6 -6 -7 -7 -8 -9 -9 -9 -9 -9 -9 -10 -10 -11 -11 -11 -12 -12 -12 -12 -12 -13 -13 -13 -13 -12 -12 -12 -12 -12 -12 -12 -12 -12 -12 -12 -13 -13 -13 -13 -13 -13 -13 -13 -13 -13 -12 -12 -12 -12 -12 -12 -12 -12 -11 -12 -12 -12
-6 -6 -6 -6 -6 -7 -7 -7 -8 -9 -9 -9 -9 -9 -9 -10 -10 -11 -11 -12 -12 -12 -12 -12 -13 -13 -13 -13 -13 -13 -12 -12 -12 -12 -12 -12 -12 -13 -13 -13 -13 -13 -13 -13 -13 -13 -13 -13 -13 -13 -13 -12 -12 -12 -12 -12 -12 -12 -12 -12 -12 -12 -12
-6 -7 -7 -7 -7 -7 -7 -7 -8 -9 -9 -10 -10 -9 -10 -10 -10 -11 -11 -12 -12 -13 -13 -13 -13 -13 -13 -13 -13 -13 -13 -13 -13 -13 -13 -13 -13 -13 -13 -13 -13 -13 -13 -13 -13 -13 -13 -13 -13 -13 -13 -13 -12 -12 -12 -12 -12 -12 -12 -12 -12 -12 -12
-7 -7 -7 -7 -7 -7 -7 -7 -8 -9 -10 -10 -10 -10 -10 -10 -11 -11 -12 -12 -13 -13 -13 -13 -13 -13 -13 -13 -13 -13 -13 -13 -13 -13 -13 -13 -13 -13 -13 -13 -13 -13 -13 -13 -13 -13 -13 -13 -13 -13 -13 -13 -13 -13 -12 -12 -12 -12 -12 -12 -12 -12 -12
-7 -7 -7 -8 -8 -7 -7 -8 -8 -9 -10 -11 -11 -10 -10 -10 -11 -11 -12 -13 -13 -13 -13 -13 -13 -13 -13 -13 -13 -13 -13 -13 -13 -13 -13 -13 -13 -13 -13 -13 -13 -13 -13 -13 -13 -13 -13 -13 -13 -13 -13 -13 -13 -13 -13 -12 -12 -12 -13 -13 -13 -13 -13
-7 -7 -7 -8 -8 -8 -8 -8 -9 -10 -10 -11 -11 -11 -10 -11 -11 -12 -12 -13 -13 -13 -14 -14 -13 -13 -13 -13 -13 -13 -13 -13 -13 -13 -13 -13 -13 -13 -13 -13 -13 -13 -13 -13 -13 -13 -13 -13 -13 -13 -13 -13 -13 -13 -13 -13 -13 -13 -13 -13 -14 -14 -14
-7 -7 -8 -8 -8 -8 -8 -8 -9 -10 -11 -11 -11 -11 -11 -11 -12 -12 -13 -13 -13 -14 -14 -14 -14 -13 -13 -14 -14 -14 -14 -14 -14 -14 -14 -14 -13 -13 -13 -13 -13 -13 -13 -13 -13 -13 -14 -14 -14 -14 -14 -14 -13 -13 -14 -14 -14 -14 -14 -14 -14 -14 -14
-7 -8 -8 -8 -8 -8 -9 -9 -10 -10 -11 -11 -11 -11 -11 -12 -12 -12 -13 -13 -14 -14 -14 -14 -14 -14 -14 -14 -14 -14 -14 -14 -14 -14 -14 -14 -14 -14 -14 -14 -14 -14 -14 -14 -14 -14 -14 -14 -14 -14 -14 -14 -14 -14 -14 -14 -14 -14 -15 -15 -15 -15 -15
-7 -8 -8 -8 -8 -9 -9 -9 -10 -11 -11 -11 -11 -12 -12 -12 -13 -13 -13 -14 -14 -14 -14 -14 -14 -14 -14 -14 -14 -14 -14 -14 -14 -14 -14 -14 -14 -14 -14 -14 -14 -14 -14 -14 -14 -14 -14 -15 -15 -14 -14 -14 -15 -15 -15 -15 -15 -15 -15 -15 -15 -15 -15
-8 -8 -8 -8 -9 -9 -9 -10 -11 -11 -12 -12 -12 -12 -12 -13 -13 -13 -14 -14 -14 -14 -14 -14 -14 -14 -14 -14 -14 -14 -14 -14 -14 -14 -14 -14 -14 -14 -14 -14 -14 -14 -14 -14 -14 -14 -14 -15 -15 -14 -14 -15 -15 -15 -16 -16 -16 -16 -16 -16 -16 -16 -16
-8 -8 -8 -8 -9 -9 -10 -10 -11 -11 -12 -12 -12 -12 -13 -13 -13 -14 -14 -14 -14 -14 -14 -14 -14 -14 -14 -14 -14 -14 -14 -14 -15 -15 -15 -15 -15 -15 -14 -14 -14 -14 -14 -15 -15 -15 -15 -15 -15 -15 -15 -15 -15 -16 -16 -16 -16 -16 -16 -16 -16 -16 -16
-8 -9 -9 -9 -9 -10 -10 -11 -11 -12 -12 -12 -12 -12 -13 -13 -14 -14 -14 -14 -14 -14 -14 -14 -14 -14 -14 -14 -14 -15 -15 -15 -15 -15 -15 -15 -15 -15 -15 -15 -15 -15 -15 -15 -15 -15 -15 -15 -15 -16 -16 -16 -16 -16 -16 -16 -16 -16 -16 -17 -16 -16 -16
-8 -9 -9 -10 -10 -10 -11 -11 -12 -12 -12 -12 -13 -13 -14 -14 -14 -14 -15 -14 -14 -14 -14 -14 -14 -15 -15 -15 -15 -15 -15 -15 -15 -15 -15 -15 -15 -15 -15 -15 -15 -15 -15 -15 -15 -15 -15 -16 -16 -16 -16 -16 -16 -16 -17 -17 -17 -17 -17 -17 -17 -17 -17
-8 -9 -9 -10 -10 -11 -11 -12 -12 -13 -13 -13 -13 -14 -14 -15 -15 -15 -15 -15 -15 -15 -15 -15 -15 -15 -15 -15 -15 -15 -15 -15 -16 -16 -16 -16 -16 -15 -16 -16 -16 -16 -16 -16 -16 -16 -16 -16 -16 -17 -17 -17 -17 -17 -17 -17 -17 -17 -17 -17 -17 -17 -17
-9 -9 -9 -10 -10 -11 -11 -12 -13 -13 -14 -14 -14 -14 -15 -15 -15 -15 -15 -15 -15 -15 -15 -15 -15 -15 -15 -15 -15 -16 -16 -16 -16 -16 -16 -16 -16 -16 -16 -16 -16 -16 -16 -16 -16 -16 -17 -17 -17 -17 -17 -18 -17 -18 -18 -18 -18 -18 -18 -18 -18 -18 -18
-9 -9 -10 -10 -10 -11 -11 -12 -13 -14 -14 -14 -14 -15 -15 -15 -15 -15 -15 -15 -15 -15 -15 -15 -15 -15 -16 -16 -16 -16 -16 -16 -16 -16 -16 -16 -16 -16 -17 -17 -17 -17 -16 -16 -17 -17 -17 -17 -18 -18 -18 -18 -18 -18 -18 -18 -18 -18 -18 -18 -18 -18 -18
-9 -10 -10 -11 -11 -11 -12 -12 -13 -14 -14 -14 -15 -15 -15 -15 -15 -15 -15 -15 -15 -15 -15 -15 -16 -16 -16 -16 -16 -16 -17 -17 -16 -16 -17 -17 -17 -17 -17 -17 -17 -17 -17 -17 -18 -18 -18 -18 -18 -18 -18 -18 -18 -18 -19 -19 -19 -18 -18 -18 -18 -18 -18
-10 -11 -12 -12 -12 -12 -13 -13 -13 -14 -14 -15 -15 -15 -15 -15 -15 -15 -15 -16 -16 -16 -16 -16 -16 -16 -16 -17 -17 -17 -17 -17 -17 -17 -17 -17 -17 -18 -18 -18 -18 -18 -18 -18 -18 -19 -19 -19 -19 -19 -19 -19 -19 -19 -19 -19 -19 -19 -19 -19 -19 -19 -19
-11 -12 -13 -13 -13 -13 -14 -14 -14 -14 -15 -15 -15 -16 -16 -16 -16 -16 -16 -16 -16 -16 -16 -17 -17 -17 -17 -17 -17 -17 -17 -17 -17 -18 -18 -18 -18 -18 -18 -19 -19 -19 -19 -19 -19 -19 -19 -19 -19 -19 -19 -19 -19 -19 -19 -19 -19 -19 -19 -19 -19 -19 -19
-12 -13 -14 -14 -14 -15 -15 -15 -15 -15 -15 -16 -16 -16 -16 -16 -17 -17 -17 -17 -17 -17 -17 -17 -17 -17 -18 -18 -18 -18 -18 -18 -18 -18 -18 -18 -18 -19 -19 -19 -19 -19 -19 -20 -20 -20 -20 -20 -20 -20 -20 -19 -19 -19 -19 -19 -19 -20 -20 -20 -20 -20 -20
-13 -14 -15 -15 -15 -15 -16 -16 -16 -16 -16 -17 -17 -17 -17 -17 -17 -17 -18 -18 -18 -18 -18 -18 -18 -18 -18 -18 -19 -19 -18 -18 -18 -19 -19 -19 -19 -19 -19 -19 -19 -20 -20 -20 -20 -20 -20 -20 -20 -20 -20 -20 -20 -20 -20 -20 -20 -20 -20 -20 -20 -21 -21
Height
3014 3013 3012 3011 3009 3008 3007 3007 3006 3005 3004 3004 3003 3003 3002 3002 3003 3003 3004 3005 3005 3005 3006 3007 3008 3008 3009 3010 3011 3012 3014 3015 3015 3017 3019 3020 3022 3023 3023 3024 3024 3023 3024 3024 3024 3025 3026 3027 3027 3027 3028 3029 3029 3029 3030 3030 3030 3030 3031 3031 3031 3031 3031
3010 3009 3008 3006 3005 3004 3003 3002 3001 3000 3000 2999 2999 2998 2998 2998 2998 2998 2999 3000 3000 3001 3002 3002 3003 3004 3005 3006 3007 3008 3009 3010 3011 3013 3015 3017 3018 3019 3020 3020 3020 3020 3020 3020 3020 3021 3021 3022 3023 3023 3024 3025 3025 3025 3026 3027 3027 3027 3027 3027 3027 3027 3027
3005 3004 3003 3002 3000 2999 2998 2997 2997 2996 2996 2995 2995 2994 2994 2993 2994 2994 2995 2995 2996 2996 2997 2998 2999 3000 3001 3002 3003 3004 3005 3006 3007 3008 3010 3012 3014 3015 3016 3016 3016 3016 3016 3016 3016 3017 3017 3018 3019 3019 3020 3021 3021 3022 3022 3023 3023 3023 3023 3023 3023 3023 3023
3001 2999 2998 2997 2996 2995 2994 2993 2992 2991 2991 2991 2990 2990 2990 2990 2990 2990 2991 2991 2992 2992 2992 2993 2994 2995 2996 2997 2999 3000 3001 3001 3002 3003 3005 3007 3009 3010 3011 3011 3012 3012 3012 3012 3012 3013 3013 3013 3014 3015 3015 3016 3017 3018 3018 3019 3019 3019 3019 3019 3019 3019 3019
2996 2995 2993 2992 2991 2990 2989 2989 2988 2987 2986 2986 2986 2986 2986 2986 2986 2987 2987 2988 2988 2988 2988 2988 2989 2990 2992 2993 2994 2995 2996 2997 2998 2999 3001 3002 3004 3005 3006 3006 3007 3008 3008 3008 3008 3008 3009 3009 3009 3010 3010 3011 3012 3013 3014 3014 3015 3015 3015 3015 3015 3015 3015
2992 2990 2989 2988 2987 2986 2985 2984 2983 2982 2982 2982 2982 2982 2982 2982 2983 2983 2983 2984 2984 2984 2984 2984 2985 2986 2987 2988 2990 2991 2992 2993 2994 2995 2996 2997 2999 2999 3000 3001 3002 3003 3003 3003 3003 3003 3004 3004 3005 3005 3006 3007 3008 3009 3009 3010 3010 3011 3011 3011 3010 3010 3010
2987 2986 2984 2983 2982 2981 2980 2980 2979 2978 2978 2977 2977 2978 2978 2978 2978 2979 2979 2979 2979 2979 2979 2980 2981 2982 2983 2984 2986 2987 2988 2989 2990 2991 2992 2993 2994 2995 2995 2996 2996 2997 2998 2998 2998 2998 2999 3000 3000 3001 3001 3003 3004 3004 3005 3006 3006 3006 3006 3006 3006 3006 3006
2983 2981 2980 2979 2978 2977 2976 2975 2974 2974 2973 2973 2973 2974 2974 2974 2974 2974 2974 2974 2974 2974 2975 2975 2976 2977 2979 2980 2981 2983 2984 2985 2986 2987 2988 2989 2990 2991 2992 2992 2992 2993 2993 2993 2994 2994 2995 2995 2996 2996 2997 2998 2999 3000 3001 3001 3002 3002 3002 3002 3001 3001 3001
2978 2976 2975 2974 2973 2972 2972 2971 2970 2970 2969 2969 2969 2969 2969 2970 2970 2970 2970 2970 2970 2970 2971 2971 2972 2973 2975 2976 2978 2979 2980 2981 2982 2983 2984 2985 2986 2987 2988 2988 2989 2989 2989 2989 2989 2990 2990 2990 2991 2992 2993 2994 2995 2996 2996 2997 2997 2997 2997 2997 2996 2996 2996
2973 2972 2971 2970 2969 2968 2967 2966 2966 2965 2965 2964 2965 2965 2965 2966 2966 2966 2966 2966 2966 2966 2967 2968 2969 2970 2971 2972 2974 2975 2976 2978 2979 2980 2980 2981 2982 2982 2983 2984 2984 2984 2985 2985 2985 2985 2985 2985 2986 2987 2988 2989 2990 2991 2992 2992 2992 2992 2993 2993 2992 2991 2991
2968 2968 2967 2965 2964 2963 2963 2962 2962 2961 2961 2960 2960 2961 2961 2961 2961 2961 2961 2961 2962 2962 2963 2964 2965 2966 2967 2968 2970 2971 2973 2974 2975 2976 2976 2977 2977 2978 2978 2979 2979 2980 2980 2980 2980 2980 2981 2981 2981 2982 2983 2984 2985 2986 2986 2987 2987 2987 2988 2988 2988 2987 2986
2964 2963 2962 2961 2960 2959 2958 2958 2957 2957 2957 2956 2957 2957 2957 2957 2957 2956 2957 2957 2957 2958 2959 2960 2961 2962 2963 2965 2966 2968 2969 2970 2971 2971 2972 2972 2972 2973 2973 2974 2974 2975 2975 2975 2976 2976 2976 2977 2977 2978 2979 2980 2980 2981 2981 2982 2982 2982 2983 2983 2983 2983 2982
2959 2958 2958 2957 2956 2955 2954 2953 2953 2952 2952 2952 2952 2953 2952 2952 2952 2952 2952 2953 2953 2954 2955 2956 2957 2958 2960 2961 2962 2964 2965 2965 2966 2966 2967 2967 2968 2968 2968 2969 2969 2970 2970 2971 2971 2972 2972 2973 2973 2973 2974 2975 2976 2976 2976 2977 2977 2977 2977 2977 2977 2978 2977
2955 2954 2953 2952 2951 2950 2949 2949 2948 2948 2948 2948 2948 2948 2948 2948 2948 2948 2948 2949 2950 2950 2951 2952 2954 2955 2956 2957 2959 2960 2961 2961 2962 2962 2963 2963 2963 2964 2964 2964 2965 2965 2966 2967 2967 2968 2968 2969 2969 2969 2970 2971 2971 2971 2971 2972 2972 2971 2971 2971 2972 2972 2972
2951 2950 2948 2947 2946 2945 2945 2944 2943 2943 2943 2943 2944 2944 2944 2944 2944 2944 2945 2945 2946 2947 2948 2949 2950 2951 2953 2954 2955 2956 2957 2958 2958 2958 2959 2959 2959 2960 2960 2960 2961 2962 2963 2963 2964 2964 2964 2965 2965 2966 2966 2966 2966 2966 2966 2966 2966 2966 2965 2966 2966 2966 2966
2946 2945 2944 2943 2942 2941 2940 2939 2938 2938 2938 2939 2939 2939 2939 2940 2940 2940 2941 2941 2942 2943 2944 2945 2947 2948 2949 2950 2951 2952 2953 2954 2954 2954 2954 2955 2955 2956 2956 2956 2957 2958 2959 2960 2960 2960 2960 2961 2961 2961 2961 2961 2960 2961 2961 2961 2961 2961 2960 2960 2960 2960 2960
2942 2941 2939 2938 2937 2936 2935 2934 2934 2934 2934 2934 2935 2935 2935 2935 2936 2936 2937 2938 2938 2940 2941 2942 2943 2944 2946 2947 2948 2948 2949 2949 2950 2950 2950 2951 2951 2952 2952 2952 2954 2955 2956 2956 2956 2956 2957 2957 2957 2957 2957 2956 2955 2955 2956 2956 2956 2956 2955 2954 2954 2954 2954
2937 2936 2934 2933 2933 2931 2930 2929 2929 2929 2929 2930 2931 2930 2931 2931 2932 2932 2933 2934 2935 2936 2937 2938 2940 2941 2942 2943 2944 2945 2945 2946 2946 2946 2947 2947 2948 2948 2947 2949 2950 2951 2952 2952 2952 2953 2953 2953 2953 2953 2953 2951 2950 2950 2951 2951 2951 2951 2950 2949 2948 2947 2948
2932 2931 2930 2928 2928 2926 2925 2924 2924 2924 2925 2926 2926 2926 2927 2927 2928 2928 2929 2930 2931 2932 2933 2935 2936 2937 2938 2939 2940 2941 2941 2942 2942 2943 2943 2944 2943 2943 2943 2945 2947 2947 2947 2948 2948 2948 2949 2949 2949 2948 2948 2947 2946 2945 2945 2945 2945 2945 2944 2943 2943 2942 2941
2927 2926 2924 2923 2922 2921 2920 2920 2920 2920 2920 2921 2922 2922 2922 2923 2924 2924 2925 2926 2927 2928 2930 2931 2932 2933 2935 2936 2937 2937 2938 2938 2939 2939 2939 2939 2939 2939 2940 2941 2942 2942 2943 2943 2943 2944 2944 2944 2944 2943 2942 2942 2941 2940 2939 2939 2939 2938 2938 2937 2937 2936 2934
2922 2921 2919 2918 2917 2916 2916 2915 2915 2915 2916 2918 2918 2918 2918 2919 2920 2920 2921 2922 2923 2924 2926 2927 2929 2930 2931 2932 2933 2933 2934 2934 2935 2935 2935 2935 2935 2935 2936 2936 2936 2937 2938 2938 2938 2939 2939 2939 2938 2938 2937 2936 2935 2934 2934 2934 2932 2932 2931 2930 2929 2928 2928
2917 2916 2914 2913 2912 2912 2911 2911 2911 2911 2912 2914 2914 2914 2914 2915 2915 2916 2917 2918 2919 2921 2922 2923 2924 2926 2927 2928 2928 2929 2929 2929 2930 2930 2930 2930 2930 2930 2931 2931 2931 2932 2932 2933 2933 2934 2934 2934 2933 2932 2931 2930 2929 2929 2929 2928 2926 2925 2924 2923 2922 2921 2921
2912 2910 2908 2908 2908 2907 2907 2907 2907 2907 2908 2910 2910 2910 2910 2911 2911 2912 2913 2914 2915 2916 2917 2919 2920 2921 2923 2923 2923 2924 2924 2925 2925 2925 2925 2925 2925 2925 2926 2926 2927 2927 2927 2928 2929 2929 2929 2928 2927 2926 2925 2925 2924 2924 2923 2922 2921 2920 2918 2917 2917 2916 2915
2906 2904 2903 2903 2903 2903 2903 2903 2903 2903 2904 2906 2906 2906 2906 2907 2908 2908 2909 2910 2911 2912 2913 2914 2916 2917 2918 2918 2919 2919 2920 2920 2920 2920 2920 2920 2920 2920 2921 2921 2922 2922 2922 2923 2924 2923 2923 2923 2921 2921 2920 2920 2919 2919 2918 2917 2916 2914 2913 2912 2911 2909 2908
2901 2899 2899 2898 2898 2898 2899 2899 2899 2899 2900 2901 2902 2902 2902 2903 2903 2904 2905 2906 2907 2907 2908 2909 2911 2912 2913 2914 2914 2915 2916 2916 2916 2916 2916 2916 2916 2916 2916 2916 2916 2917 2917 2918 2918 2918 2917 2917 2916 2916 2915 2915 2914 2913 2913 2912 2910 2909 2907 2906 2904 2903 2901
2895 2894 2894 2894 2894 2894 2894 2894 2894 2895 2896 2897 2898 2898 2898 2898 2899 2900 2901 2902 2902 2903 2904 2905 2906 2908 2908 2909 2910 2910 2911 2911 2910 2911 2911 2910 2910 2911 2911 2911 2911 2911 2912 2912 2912 2911 2911 2911 2911 2910 2909 2908 2908 2907 2907 2905 2904 2903 2901 2900 2898 2896 2896
2890 2889 2889 2889 2889 2889 2889 2890 2890 2890 2891 2892 2893 2893 2894 2894 2895 2896 2897 2898 2898 2898 2899 2900 2901 2902 2903 2904 2905 2905 2905 2905 2905 2905 2905 2905 2905 2905 2905 2905 2905 2906 2906 2906 2905 2905 2905 2905 2904 2904 2903 2902 2901 2901 2900 2898 2897 2896 2895 2893 2891 2890 2890
2884 2884 2884 2884 2884 2884 2884 2885 2885 2886 2887 2888 2888 2889 2890 2890 2891 2892 2893 2893 2893 2893 2894 2894 2896 2897 2898 2899 2899 2899 2899 2899 2899 2899 2899 2899 2899 2899 2899 2899 2900 2900 2900 2899 2899 2899 2899 2898 2898 2897 2896 2895 2894 2894 2893 2891 2890 2889 2888 2886 2884 2883 2883
2878 2878 2878 2878 2878 2878 2879 2880 2881 2882 2883 2883 2884 2885 2885 2886 2886 2887 2887 2887 2887 2887 2888 2889 2891 2892 2893 2894 2894 2894 2894 2894 2894 2893 2893 2893 2893 2893 2893 2893 2893 2893 2893 2892 2892 2892 2892 2891 2890 2890 2889 2888 2887 2887 2885 2884 2882 2881 2880 2878 2877 2876 2875
2872 2872 2872 2872 2872 2872 2873 2874 2876 2877 2877 2877 2878 2879 2880 2880 2881 2880 2880 2881 2881 2882 2883 2885 2886 2887 2888 2888 2888 2888 2888 2888 2888 2888 2888 2888 2888 2888 2887 2887 2887 2886 2885 2885 2885 2884 2884 2883 2883 2882 2881 2880 2880 2879 2878 2876 2875 2874 2872 2871 2870 2869 2868
2866 2866 2866 2865 2866 2866 2867 2868 2869 2870 2870 2870 2871 2872 2873 2874 2874 2874 2875 2875 2877 2878 2879 2881 2882 2882 2882 2882 2882 2882 2882 2882 2882 2882 2882 2882 2882 2882 2881 2881 2880 2879 2878 2878 2877 2877 2876 2875 2875 2874 2874 2873 2872 2872 2871 2869 2868 2867 2865 2864 2862 2861 2860
2859 2859 2859 2859 2860 2860 2861 2861 2862 2862 2863 2863 2864 2865 2866 2867 2867 2868 2869 2871 2872 2873 2875 2876 2876 2877 2877 2877 2877 2877 2877 2877 2877 2877 2877 2876 2876 2876 2875 2875 2873 2872 2871 2871 2870 2869 2869 2868 2867 2867 2866 2865 2864 2864 2863 2862 2861 2859 2858 2856 2855 2853 2852
2853 2853 2853 2854 2854 2854 2855 2855 2855 2855 2856 2857 2858 2859 2860 2861 2862 2863 2864 2866 2867 2868 2869 2870 2871 2871 2871 2871 2871 2871 2871 2871 2871 2871 2871 2871 2871 2870 2869 2868 2867 2866 2865 2864 2863 2862 2861 2861 2860 2859 2858 2858 2857 2856 2855 2854 2853 2852 2850 2848 2847 2846 2845
2846 2847 2847 2848 2849 2849 2849 2849 2849 2850 2851 2851 2852 2853 2855 2856 2857 2858 2859 2860 2861 2862 2863 2864 2864 2864 2865 2865 2865 2866 2866 2866 2866 2866 2865 2865 2865 2864 2863 2862 2861 2860 2859 2858 2857 2856 2855 2854 2853 2852 2851 2850 2849 2848 2847 2846 2845 2844 2842 2840 2839 2838 2837
2840 2840 2841 2842 2843 2843 2844 2844 2845 2845 2846 2847 2848 2849 2850 2851 2852 2853 2854 2855 2856 2857 2857 2857 2858 2858 2859 2859 2859 2860 2860 2860 2860 2860 2860 2859 2859 2858 2857 2856 2855 2854 2853 2851 2850 2849 2848 2847 2846 2845 2844 2843 2841 2840 2839 2838 2836 2835 2834 2832 2831 2830 2829
2833 2833 2834 2835 2837 2838 2839 2839 2840 2841 2842 2843 2844 2844 2845 2846 2847 2848 2850 2850 2851 2852 2852 2853 2853 2853 2853 2854 2854 2854 2854 2854 2854 2854 2853 2853 2852 2852 2851 2850 2849 2848 2846 2845 2844 2843 2842 2840 2839 2838 2836 2834 2833 2832 2831 2829 2828 2827 2826 2824 2823 2822 2821
Wind_Speed
33 34 34 34 34 33 33 32 32 32 33 34 34 33 33 33 33 34 35 36 36 36 36 37 37 37 37 37 36 37 37 37 37 37 38 39 36 33 30 28 27 25 23 22 21 21 21 20 19 20 21 21 22 23 25 27 28 29 29 30 30 30 30
33 34 34 34 34 34 33 32 32 32 32 33 33 33 32 31 30 30 32 34 34 35 36 36 36 36 37 36 37 37 38 38 38 37 37 38 37 34 31 29 28 27 24 23 23 22 22 20 20 20 21 22 23 23 25 27 28 29 30 30 31 30 31
33 33 34 34 34 34 33 32 32 32 32 32 32 32 31 29 28 28 30 32 33 34 35 36 36 36 36 35 35 36 37 38 38 38 37 38 38 36 33 30 28 27 26 25 23 23 22 21 20 21 22 23 23 24 26 27 29 29 30 31 31 31 31
33 33 34 34 34 34 33 33 33 33 32 32 32 31 29 28 27 28 29 31 33 34 35 36 36 36 36 35 34 34 36 38 39 38 37 38 38 37 33 30 28 27 26 25 24 23 22 21 21 22 23 24 24 25 26 27 28 29 30 31 31 31 31
34 34 34 34 33 33 33 33 33 33 32 32 31 29 28 28 27 27 29 31 33 35 36 36 36 36 36 34 33 33 35 38 39 39 38 38 39 37 32 27 26 26 26 26 25 23 22 22 23 24 24 25 25 26 27 28 29 29 30 30 30 30 30
34 34 34 34 33 33 33 33 33 33 32 31 30 28 28 28 28 28 29 30 33 35 36 37 37 37 36 34 33 33 34 36 39 39 39 39 40 40 36 32 31 30 30 28 26 25 24 25 25 25 25 26 26 27 28 28 29 29 29 30 30 30 30
34 34 34 34 33 33 32 32 32 32 32 31 29 27 28 29 31 32 32 33 35 36 37 38 37 37 35 34 33 33 32 33 36 38 40 40 42 43 43 42 40 37 34 31 28 27 27 27 27 27 27 27 28 28 28 28 28 29 29 30 30 31 31
34 33 33 33 33 32 32 32 32 31 31 30 28 28 28 30 32 33 34 35 36 37 37 37 37 36 35 34 33 32 31 31 33 35 37 40 41 43 44 44 43 41 38 35 32 31 30 30 29 29 29 29 29 28 28 28 28 29 29 29 30 31 31
34 33 33 33 32 32 32 32 32 31 31 30 28 28 29 30 32 33 35 36 36 35 35 36 36 36 35 34 33 32 32 32 32 33 33 35 36 37 38 38 38 38 37 36 34 33 32 31 31 31 31 30 29 29 28 28 28 28 28 28 29 30 31
34 33 33 33 33 32 32 32 31 31 31 30 28 27 28 29 31 33 34 34 34 33 34 35 35 35 35 34 33 32 32 32 31 31 31 31 32 32 33 34 34 34 35 34 33 32 31 31 31 31 31 30 29 29 28 28 28 28 28 28 29 30 32
33 33 33 33 33 33 33 32 32 31 31 30 27 26 27 28 29 31 32 32 31 32 32 33 34 34 33 33 32 32 31 30 30 30 31 31 32 33 33 34 34 35 34 33 32 31 31 31 31 30 29 29 28 28 28 28 28 28 28 29 29 30 32
33 33 33 34 34 34 33 32 33 32 31 29 27 26 28 29 31 31 31 30 29 30 31 32 33 33 32 32 31 30 30 30 31 32 33 33 34 34 34 34 35 35 33 31 30 29 29 29 29 29 29 28 28 28 28 29 29 29 29 30 30 30 32
34 34 34 35 35 35 34 33 34 33 31 29 27 27 29 30 31 30 29 28 27 28 29 31 31 31 31 30 30 30 31 32 32 32 33 33 33 33 34 34 34 32 30 28 27 27 27 27 28 28 28 28 28 29 29 29 29 30 30 31 31 32 33
34 34 35 35 35 35 35 34 34 33 31 30 29 28 28 29 30 29 27 26 26 27 28 29 29 30 29 29 30 30 31 31 31 32 32 32 32 33 33 32 31 29 27 26 25 25 26 27 27 28 28 29 29 29 30 30 30 31 32 32 33 33 34
34 35 36 36 36 36 36 35 34 32 30 30 29 28 28 29 30 28 26 25 25 26 26 27 28 28 28 28 29 29 29 30 30 31 31 31 32 31 30 29 28 27 26 25 25 25 26 27 27 28 28 29 29 30 30 31 31 32 34 35 35 35 36
34 36 37 37 37 37 37 36 34 31 30 29 29 29 30 30 29 28 26 25 24 25 25 26 26 26 26 27 27 28 28 29 30 30 31 30 30 29 29 28 27 26 25 24 25 26 26 26 26 27 29 30 31 31 32 33 33 34 36 37 37 38 39
36 37 38 38 37 37 37 37 34 31 30 30 29 29 30 30 29 27 25 24 23 24 24 24 25 25 25 26 27 28 28 29 30 30 29 29 28 28 28 27 26 25 24 25 25 26 26 27 27 28 29 31 33 33 34 34 35 36 37 39 40 41 41
38 39 39 39 38 38 38 36 34 32 31 30 30 30 30 29 29 27 25 23 23 24 24 24 25 25 26 26 27 28 28 29 29 29 29 28 27 27 28 27 25 25 25 25 26 26 27 27 28 29 30 33 35 36 36 36 37 37 39 40 42 43 44
40 40 40 40 38 38 37 35 33 32 31 30 30 31 31 30 29 28 26 24 24 24 25 25 25 25 26 26 27 27 28 29 29 29 28 27 27 28 28 27 26 26 26 26 27 27 28 29 30 31 33 35 36 38 38 39 39 39 41 42 44 45 46
40 41 41 40 39 37 36 34 32 31 31 30 30 31 31 31 30 28 26 25 25 25 25 25 26 26 26 26 27 27 28 29 29 28 28 27 28 29 28 28 27 27 27 28 28 29 29 30 31 33 35 36 38 39 40 40 40 41 42 44 45 46 47
41 43 42 40 38 37 35 34 32 31 30 29 30 31 32 31 30 29 28 27 27 27 27 27 27 27 26 27 27 28 29 29 29 28 28 28 29 29 28 28 29 29 29 30 31 31 31 32 34 35 37 38 39 40 41 41 42 43 44 45 46 47 48
43 44 42 39 37 36 35 33 31 30 30 30 31 32 32 31 31 30 30 29 29 28 28 28 28 27 27 27 28 29 30 30 29 29 29 29 29 29 29 29 30 31 32 32 33 33 33 34 36 37 39 40 41 41 41 41 43 44 46 47 48 49 50
44 43 40 37 35 34 33 32 30 29 30 31 32 32 32 32 31 31 31 30 30 29 29 29 29 28 28 29 30 30 31 30 30 30 30 30 30 30 30 31 32 33 33 34 34 34 35 36 37 39 40 41 41 42 42 42 44 45 47 48 49 50 50
42 40 37 36 34 33 32 31 30 29 30 31 33 33 32 32 32 32 31 31 31 31 31 31 30 29 29 30 31 32 32 31 31 31 31 31 31 31 32 33 34 34 35 35 35 36 36 37 39 41 42 42 42 42 42 43 44 46 47 48 49 50 51
41 37 35 35 34 33 32 31 30 30 31 32 32 33 33 32 32 32 32 32 32 32 32 32 31 31 31 32 32 32 32 32 32 32 32 32 33 33 34 35 36 36 36 36 36 38 39 40 41 42 43 43 43 43 43 43 45 46 47 48 49 50 51
38 35 34 34 33 32 31 31 31 31 32 33 32 32 33 34 34 34 34 34 34 34 34 34 33 32 32 33 33 33 33 33 33 33 34 34 35 36 36 37 38 38 38 38 39 40 41 42 43 43 43 43 44 43 43 44 46 46 47 48 49 51 51
35 33 33 32 31 30 30 30 31 32 33 33 32 32 34 35 35 35 35 35 35 35 36 35 34 34 34 33 33 33 34 34 35 35 36 36 37 38 39 39 39 39 39 40 41 43 43 43 43 43 43 44 44 44 44 45 47 47 47 48 50 51 51
36 34 32 30 29 29 29 29 30 31 32 33 33 33 34 35 35 35 35 36 36 37 37 37 36 35 34 34 34 35 35 36 36 37 37 38 39 40 41 41 41 41 41 42 44 45 45 44 44 44 44 45 45 45 45 46 47 47 48 49 50 51 51
38 36 34 32 31 31 30 30 29 29 31 33 34 34 35 36 37 37 37 38 39 40 39 39 37 36 35 35 35 36 37 37 37 38 38 39 40 41 41 42 42 43 43 45 46 46 46 46 45 45 45 45 46 46 46 47 48 48 49 50 51 52 51
39 37 37 36 35 34 34 32 31 31 33 35 36 36 37 38 39 40 41 41 42 42 41 39 38 36 36 36 37 38 38 38 38 39 39 39 40 41 42 42 43 44 45 46 47 47 47 47 47 46 46 46 47 47 47 48 49 49 50 51 52 52 52
40 39 39 39 38 38 37 35 35 35 37 38 39 40 41 41 42 43 43 43 43 42 40 39 37 37 37 38 39 39 38 39 39 39 40 40 41 41 42 43 44 45 47 48 48 49 49 49 49 48 48 48 48 48 48 49 50 50 51 52 52 52 51
42 40 40 41 41 40 40 39 39 39 40 42 43 44 44 44 44 45 44 44 43 41 40 39 38 38 39 40 40 40 40 40 41 40 41 41 41 42 43 43 45 46 47 48 49 49 50 50 50 50 50 49 50 50 50 50 51 51 51 51 52 52 52
42 40 40 41 42 42 42 42 43 43 44 44 45 45 45 45 45 45 44 43 42 41 40 40 40 40 40 41 41 41 41 41 41 41 42 42 42 43 43 44 46 47 48 49 49 50 50 50 50 50 51 51 51 52 52 52 52 51 51 52 52 52 52
42 40 39 40 43 44 44 44 45 45 45 45 45 45 45 44 44 44 43 42 42 41 41 41 41 41 41 41 41 42 42 42 42 42 43 43 43 44 44 46 47 48 48 49 50 50 50 50 50 51 51 52 52 53 53 53 52 52 52 52 52 52 52
41 40 39 40 43 44 44 45 45 45 45 44 44 43 43 43 43 43 42 42 42 41 41 41 42 41 41 41 41 42 42 42 43 43 44 44 45 45 46 47 48 49 49 50 50 50 49 50 50 51 52 52 53 53 53 53 53 52 52 52 52 52 51
41 40 40 41 43 43 44 44 44 44 43 43 42 42 42 41 41 41 41 41 41 41 42 42 41 41 41 41 41 41 41 42 43 43 44 45 46 47 48 49 49 49 49 49 49 49 49 50 51 51 52 53 53 54 54 53 53 53 53 52 52 52 51
Wind_Direction
300 299 297 294 292 289 287 285 283 282 280 278 275 269 264 262 257 251 252 255 255 252 249 249 250 250 250 250 247 244 241 239 239 239 238 236 238 243 248 252 256 257 258 261 264 267 268 267 267 269 271 272 271 272 273 273 273 273 272 272 271 270 268
301 299 297 294 291 289 287 285 284 283 281 278 275 271 266 263 259 253 251 253 255 254 250 248 249 249 249 249 247 243 240 239 240 242 242 240 241 246 253 257 258 259 261 263 264 266 267 266 267 269 270 270 269 269 270 271 271 271 271 271 271 271 270
301 299 296 293 291 288 287 286 286 285 283 279 275 271 267 263 258 254 253 252 253 253 251 248 248 249 249 249 248 245 242 240 240 241 242 240 240 247 255 259 261 262 262 262 262 262 265 267 268 269 268 267 265 265 266 267 268 269 269 270 271 271 272
301 299 296 293 290 288 288 287 287 286 284 281 276 272 268 262 256 254 253 253 251 251 249 247 246 247 249 249 249 247 244 241 238 238 239 238 240 249 257 259 262 264 262 262 262 263 266 268 268 268 267 264 263 263 264 264 266 267 268 269 270 272 273
300 298 295 292 290 289 288 288 288 287 285 282 278 273 268 262 257 254 255 255 254 252 249 246 245 245 246 247 248 248 246 242 238 237 237 237 240 249 257 260 263 267 267 266 266 268 269 269 269 269 267 265 263 263 264 265 266 267 268 269 269 270 272
299 297 294 292 291 290 289 288 288 287 286 282 277 271 266 262 259 258 258 258 258 256 252 249 246 244 244 245 246 248 247 245 241 238 237 237 239 247 256 263 268 272 273 271 269 270 271 271 270 270 267 265 264 264 264 264 265 266 267 268 269 270 271
297 295 293 292 291 290 289 288 287 286 285 281 276 269 262 258 258 258 258 258 257 255 252 249 246 244 244 244 245 247 247 246 243 241 240 240 241 245 253 261 268 273 275 274 273 273 272 272 271 269 265 263 262 262 262 262 264 265 266 267 269 270 272
295 293 292 291 291 290 288 287 286 285 284 281 274 265 259 257 259 260 260 260 258 254 251 247 244 243 242 243 245 246 246 246 245 245 245 246 247 249 254 259 265 269 272 272 273 272 272 271 270 267 264 262 261 261 262 263 265 266 268 269 272 273 275
292 291 290 290 290 289 288 287 286 284 283 281 274 264 258 257 260 262 263 262 260 256 252 248 246 244 242 242 243 244 246 247 249 251 252 253 254 255 257 260 263 266 267 268 269 269 269 269 268 266 263 262 262 262 263 264 266 268 270 272 274 276 278
290 289 289 289 289 289 288 286 284 281 280 281 276 265 259 260 263 265 265 264 262 258 254 251 248 246 244 243 243 244 246 249 252 255 256 256 257 258 259 262 264 267 267 266 266 267 268 268 265 263 261 261 261 262 263 265 266 268 269 270 272 275 278
288 287 287 288 288 288 287 285 282 279 278 280 277 266 260 262 265 267 266 264 261 258 256 253 250 248 245 244 244 245 248 250 252 253 253 254 255 257 259 262 265 266 265 264 263 263 264 263 261 260 259 260 262 263 264 266 266 267 268 269 271 275 278
288 287 286 287 287 287 287 284 280 278 276 276 273 265 261 263 264 264 263 261 258 257 255 254 251 248 246 245 245 247 249 250 251 252 253 255 257 259 261 263 263 262 261 260 259 258 258 258 258 259 260 261 263 264 265 266 267 268 269 271 273 275 278
289 287 287 287 287 288 287 283 279 277 276 275 271 264 263 264 263 261 259 256 255 255 255 254 252 249 247 247 247 248 250 252 253 255 257 259 260 262 262 262 260 258 257 256 256 255 255 256 257 259 261 262 263 264 265 266 267 269 271 273 276 278 281
291 289 287 287 288 288 288 285 281 277 274 273 271 267 265 264 262 257 253 251 252 253 254 253 252 250 248 248 249 251 253 255 257 260 261 262 262 262 260 259 257 256 255 255 254 254 254 256 257 260 262 263 264 265 267 269 271 273 275 277 279 281 284
293 290 288 288 288 288 288 287 284 277 271 269 268 268 266 262 257 252 248 247 250 252 253 252 252 250 249 250 252 255 257 260 262 264 264 264 262 260 258 257 256 255 253 253 253 255 256 257 259 262 264 266 267 269 271 273 275 277 278 279 281 283 285
297 292 289 289 289 290 290 289 284 276 268 265 265 264 261 257 252 248 245 245 248 250 250 251 250 250 250 252 255 258 261 263 264 265 264 262 260 257 256 255 254 253 254 255 256 257 259 261 264 266 268 269 271 272 273 275 276 278 279 280 282 284 286
302 296 291 290 290 290 290 289 283 272 264 262 261 260 256 252 247 244 242 243 246 247 247 247 247 247 249 253 257 261 264 265 265 264 261 259 256 255 254 254 254 256 258 259 260 262 264 266 268 269 271 273 273 274 275 276 277 279 280 281 283 284 286
305 300 293 289 289 290 290 287 281 270 262 259 258 257 253 249 245 242 240 241 243 244 244 244 244 247 251 256 261 264 265 265 263 261 258 256 255 255 256 257 259 261 261 262 264 266 268 269 271 272 273 274 275 276 276 277 278 279 280 281 283 285 287
304 301 293 287 287 289 288 285 278 269 262 258 255 254 251 248 245 242 239 238 239 240 241 241 244 249 254 259 262 263 263 262 260 258 257 257 258 259 261 263 264 265 266 267 269 270 271 273 274 275 275 275 277 278 278 278 279 280 280 282 284 287 290
302 300 292 285 285 287 286 282 275 267 262 258 255 253 251 248 245 240 237 236 237 237 239 242 247 252 257 260 262 262 261 259 258 258 258 259 261 263 265 268 269 270 272 273 273 274 275 275 276 276 276 276 277 278 278 280 280 281 282 284 287 290 292
299 297 289 283 283 284 284 280 273 266 261 258 256 253 250 248 245 239 234 233 233 235 239 243 248 253 256 258 259 258 258 257 257 258 259 261 264 267 270 272 274 275 276 276 277 277 277 277 277 277 277 277 278 279 280 281 282 283 285 288 291 293 294
296 294 285 280 281 282 281 278 271 265 261 258 256 253 249 247 245 239 234 232 231 234 240 244 248 252 254 255 255 254 254 254 256 257 259 262 265 269 272 274 276 277 277 278 278 278 278 278 278 278 279 279 280 281 282 283 284 286 288 290 292 292 293
295 290 281 279 281 281 279 275 269 264 261 257 255 253 249 246 244 239 235 232 232 235 240 243 247 250 252 253 252 252 252 253 255 257 259 262 266 269 272 273 275 276 276 277 277 277 278 278 279 279 280 281 282 282 282 283 284 286 287 289 290 291 293
294 287 278 278 280 278 277 273 267 263 260 257 254 251 248 245 243 239 234 232 233 236 240 243 246 249 250 251 252 252 253 254 256 257 260 263 266 269 271 273 275 276 276 277 278 278 278 278 278 279 279 280 280 280 280 282 283 285 286 288 289 291 294
291 282 275 276 278 276 275 271 266 262 259 256 253 249 245 243 241 237 234 233 235 238 241 245 247 247 249 251 252 254 256 257 258 261 263 266 268 270 273 275 276 278 279 280 280 279 278 278 277 278 278 278 277 278 279 281 283 285 287 288 290 292 295
286 277 273 275 275 275 272 267 264 261 257 255 253 248 243 241 239 236 235 236 238 241 245 248 248 247 248 250 252 255 257 259 261 263 266 268 271 273 275 277 278 280 281 281 280 279 279 278 278 278 278 277 277 277 279 281 283 285 287 288 290 292 295
280 272 272 273 272 272 270 265 262 259 256 255 253 246 241 239 237 236 236 238 241 244 247 250 249 248 248 250 253 256 257 259 261 264 267 270 272 275 277 278 280 281 282 282 282 281 281 281 280 279 278 277 277 278 281 283 284 285 287 289 291 293 295
275 268 266 266 265 265 264 261 260 259 257 255 251 244 238 236 237 237 237 240 244 246 248 250 249 249 250 251 253 255 257 258 261 264 267 270 273 275 277 279 281 282 283 284 284 284 284 283 281 280 278 277 278 280 282 284 285 287 289 290 291 293 294
272 266 261 257 256 256 256 256 255 254 252 250 246 241 236 235 237 238 239 242 245 247 248 249 249 250 252 253 254 256 257 259 261 264 267 271 274 276 278 281 283 284 285 286 287 287 287 284 282 280 279 278 280 282 284 286 287 288 290 290 291 292 294
270 265 259 255 252 251 251 249 246 243 242 241 240 239 237 236 237 239 240 242 244 246 248 250 251 252 253 254 255 256 257 259 262 266 269 272 275 278 280 282 284 286 287 289 290 290 288 286 283 282 281 281 283 285 286 287 288 289 289 290 290 292 293
268 263 258 254 252 249 248 245 241 238 237 237 236 235 235 235 237 239 242 243 246 248 251 253 254 254 254 254 255 256 258 260 264 267 271 273 276 278 280 283 285 286 288 290 291 290 288 286 284 283 283 284 285 286 287 288 288 288 288 289 290 292 293
266 261 257 253 250 247 244 241 238 235 235 236 236 235 235 236 237 239 242 245 247 250 252 253 253 254 254 255 256 257 259 262 265 268 271 274 276 278 280 282 284 286 288 290 289 288 287 285 284 284 284 285 286 287 287 287 287 288 289 289 291 292 293
263 258 255 252 249 245 243 241 239 236 235 235 235 236 237 239 240 242 244 246 249 251 252 252 253 253 254 255 256 258 260 264 267 270 272 274 276 278 280 283 285 287 289 289 288 287 285 284 284 284 285 286 287 287 287 287 287 288 289 290 291 292 292
259 255 254 251 247 245 243 242 241 239 238 237 237 237 239 241 243 244 246 247 249 250 251 251 252 253 254 255 257 259 262 266 269 273 275 277 279 280 283 285 287 289 289 288 287 285 284 283 284 284 285 286 286 286 287 287 288 289 289 290 291 291 291
255 252 250 248 246 245 244 243 243 242 241 241 241 242 243 244 246 247 248 249 250 250 251 251 252 253 255 256 258 260 264 268 273 276 278 279 280 283 285 287 288 288 288 286 285 284 284 284 285 286 286 286 287 287 288 289 289 289 290 290 291 291 291
253 249 246 244 243 244 244 245 245 244 244 244 244 244 246 247 248 250 251 252 253 254 255 255 256 256 257 258 260 264 268 272 276 278 279 281 283 285 287 287 287 286 285 284 284 284 285 286 287 287 288 288 288 289 289 289 289 290 290 290 290 290 290